Location: North Evanston
(42.0634°N, 87.6976°W)
Time: 06:36:06
(UTC+00:00)

Transit 2A - Visible Passes

Search period start: 10 May 2026 00:00
Search period end: 20 May 2026 00:00
Orbit: 593 x 950 km, 66.7° (Epoch: 9 May)

Date Brightness Start Highest point End Pass type
(mag) Time Alt. Az. Time Alt. Az. Time Alt. Az.
10 May 7.0 07:01:29 10° NNW 07:06:13 39° NE 07:07:59 28° E visible
10 May 6.9 08:45:04 10° NW 08:48:13 23° W 08:48:13 23° W visible
11 May 7.6 06:25:19 10° N 06:29:35 27° NE 06:31:30 21° E visible
11 May 6.5 08:08:11 10° NW 08:11:45 35° W 08:11:45 35° W visible
12 May 8.1 05:49:16 10° N 05:52:52 19° NE 05:55:12 14° ENE visible
12 May 6.1 07:31:33 10° NW 07:35:28 51° WNW 07:35:28 51° WNW visible
13 May 8.4 05:13:27 10° N 05:16:04 14° NE 05:18:34 10° ENE visible
13 May 6.0 06:55:04 10° NNW 06:59:20 63° NNW 06:59:20 63° NNW visible
14 May 8.7 04:38:38 10° NNE 04:39:11 10° NNE 04:39:43 10° NE visible
14 May 6.4 06:18:43 10° NNW 06:23:17 50° NE 06:23:17 50° NE visible
14 May 7.9 08:02:54 10° WNW 08:03:33 12° WNW 08:03:33 12° WNW visible
15 May 7.0 05:42:27 10° NNW 05:46:59 34° NE 05:47:19 33° ENE visible
15 May 7.6 07:25:46 10° NW 07:27:36 19° WNW 07:27:36 19° WNW visible
16 May 7.5 05:06:20 10° N 05:10:20 24° NE 05:11:24 22° ENE visible
16 May 7.1 06:48:59 10° NW 06:51:42 29° WNW 06:51:42 29° WNW visible
17 May 8.0 04:30:21 10° N 04:33:36 17° NE 04:35:34 14° ENE visible
17 May 6.6 06:12:24 10° NNW 06:15:51 44° NW 06:15:51 44° NW visible
18 May 8.3 03:54:43 10° N 03:56:45 12° NE 03:58:44 10° ENE visible
18 May 6.2 05:35:58 10° NNW 05:40:03 56° N 05:40:03 56° N visible
19 May 6.5 04:59:38 10° NNW 05:04:18 44° NE 05:04:18 44° NE visible
19 May 8.0 06:43:30 10° WNW 06:44:36 14° WNW 06:44:36 14° WNW visible
